FW5335 Weather Reports


Display with metric or nautical units.
time (UTC)temp
F
wind
direction
speed
MPH
gust
MPH
rain 1hr
in
rain 24hr
in
rain mn
in
humidity
%
barometer
mb
20260901143517 72 248 5.0 11.0 0.00 0.00 0.00 55 1021.6
20260901142520 71 270 5.0 9.0 0.00 0.00 0.00 57 1021.7
20260901141522 72 270 4.0 9.0 0.00 0.00 0.00 55 1021.7
20260901140519 72 225 7.0 12.0 0.00 0.00 0.00 52 1021.8
20260901135518 72 248 5.0 10.0 0.00 0.00 0.00 57 1021.8
20260901134518 72 225 4.0 10.0 0.00 0.00 0.00 56 1021.8
20260901133519 72 248 4.0 10.0 0.00 0.00 0.00 56 1021.9
20260901132518 71 248 6.0 12.0 0.00 0.00 0.00 59 1022.0
20260901131518 70 270 5.0 11.0 0.00 0.00 0.00 58 1021.8
20260901130519 71 248 6.0 11.0 0.00 0.00 0.00 57 1021.7
20260901125520 72 248 7.0 11.0 0.00 0.00 0.00 55 1021.7
20260901124601 73 225 4.0 11.0 0.00 0.00 0.00 51 1021.8
20260901123521 74 248 6.0 10.0 0.00 0.00 0.00 48 1021.9
20260901122519 73 248 5.0 9.0 0.00 0.00 0.00 53 1022.0
20260901121538 74 225 3.0 7.0 0.00 0.00 0.00 51 1021.8
20260901120526 75 248 4.0 8.0 0.00 0.00 0.00 49 1021.9
20260901115521 75 225 6.0 10.0 0.00 0.00 0.00 50 1022.1
20260901114541 74 248 7.0 11.0 0.00 0.00 0.00 51 1022.2
20260901113539 73 248 3.0 10.0 0.00 0.00 0.00 52 1022.3
20260901112518 75 248 7.0 14.0 0.00 0.00 0.00 51 1022.1
20260901111518 74 225 3.0 7.0 0.00 0.00 0.00 55 1022.2
20260901110519 71 203 6.0 12.0 0.00 0.00 0.00 57 1022.5
20260901105518 69 248 5.0 11.0 0.00 0.00 0.00 61 1022.3
20260901104542 70 270 3.0 6.0 0.00 0.00 0.00 63 1022.4
20260901103519 71 225 2.0 7.0 0.00 0.00 0.00 62 1022.6
20260901102541 71 225 5.0 9.0 0.00 0.00 0.00 61 1022.5
20260901101539 72 225 5.0 11.0 0.00 0.00 0.00 61 1022.7
20260901100521 71 248 7.0 11.0 0.00 0.00 0.00 61 1022.7
20260901095541 71 225 5.0 10.0 0.00 0.00 0.00 64 1022.8
20260901094521 70 248 4.0 8.0 0.00 0.00 0.00 64 1022.9
20260901092518 68 225 5.0 10.0 0.00 0.00 0.00 71 1022.9
20260901091520 66 225 6.0 11.0 0.00 0.00 0.00 71 1022.8
20260901090520 65 225 6.0 11.0 0.00 0.00 0.00 74 1022.9
20260901085520 64 225 3.0 4.0 0.00 0.00 0.00 78 1022.6
20260901083524 60 270 3.0 4.0 0.00 0.00 0.00 83 1022.4
20260901082521 59 248 2.0 4.0 0.00 0.00 0.00 84 1022.4
20260901081520 59 248 1.0 4.0 0.00 0.00 0.00 85 1022.3
20260901080541 58 225 2.0 4.0 0.00 0.00 0.00 85 1022.4
20260901075541 58 248 3.0 4.0 0.00 0.00 0.00 86 1022.3
20260901074542 57 225 3.0 6.0 0.00 0.00 0.00 87 1022.4
20260901073538 57 248 3.0 5.0 0.00 0.00 0.00 88 1022.3
20260901072518 56 248 2.0 4.0 0.00 0.01 0.00 90 1022.1
20260901071559 56 270 2.0 4.0 0.00 0.01 0.00 91 1022.4
20260901070540 55 248 2.0 3.0 0.00 0.01 0.00 92 1022.0
20260901065519 54 0.0 0.0 0.00 0.01 0.00 93 1022.1
20260901064524 54 0.0 0.0 0.00 0.01 0.00 93 1022.1
20260901063538 53 0.0 0.0 0.00 0.01 0.00 93 1022.1
20260901062523 53 0.0 0.0 0.00 0.01 0.00 94 1021.9
20260901061520 52 0.0 0.0 0.00 0.01 0.00 94 1021.8
20260901060520 51 0.0 0.0 0.00 0.01 0.00 93 1021.8
20260901055523 51 0.0 0.0 0.00 0.01 0.00 93 1021.6
20260901054523 50 0.0 0.0 0.00 0.01 0.00 92 1021.5
20260901053519 50 0.0 0.0 0.00 0.01 0.00 92 1021.4
20260901052518 50 0.0 0.0 0.00 0.01 0.00 92 1021.3
20260901051517 50 0.0 0.0 0.00 0.01 0.00 92 1021.2
20260901050520 50 0.0 0.0 0.00 0.01 0.00 91 1021.1
20260901045519 50 0.0 0.0 0.00 0.01 0.00 91 1021.2
20260901044520 50 0.0 0.0 0.00 0.01 0.00 90 1021.1
20260901043522 50 0.0 0.0 0.00 0.01 0.00 90 1021.1
20260901042528 50 0.0 0.0 0.00 0.01 0.00 91 1021.1
20260901041519 50 0.0 0.0 0.00 0.01 0.00 91 1021.1
20260901040538 50 0.0 0.0 0.00 0.01 0.00 90 1021.0
20260901035520 50 0.0 0.0 0.00 0.01 0.00 90 1021.0
20260901034517 50 0.0 0.0 0.00 0.01 0.00 90 1021.1
20260901033518 50 0.0 0.0 0.00 0.01 0.00 90 1021.0
20260901032518 50 0.0 0.0 0.00 0.01 0.00 91 1020.9
20260901031519 50 0.0 0.0 0.00 0.01 0.00 90 1021.1
20260901030517 50 0.0 0.0 0.00 0.01 0.00 90 1021.1
20260901025524 50 0.0 0.0 0.00 0.01 0.00 89 1021.1
20260901024538 51 0.0 0.0 0.00 0.01 0.00 89 1021.0
20260901023518 51 0.0 0.0 0.00 0.01 0.00 89 1021.2
20260901022520 51 0.0 0.0 0.00 0.01 0.00 89 1021.2
20260901021529 51 0.0 0.0 0.00 0.01 0.00 89 1021.3
20260901020543 51 0.0 0.0 0.00 0.01 0.00 88 1021.4
20260901015519 52 0.0 0.0 0.00 0.01 0.00 88 1021.4
20260901014550 52 0.0 0.0 0.00 0.01 0.00 88 1021.5
20260901013517 52 0.0 0.0 0.00 0.01 0.00 88 1021.4
20260901012521 52 0.0 0.0 0.00 0.01 0.00 88 1021.3
20260901011521 52 0.0 0.0 0.00 0.01 0.00 86 1021.2
20260901010520 53 0.0 0.0 0.00 0.01 0.00 86 1021.0
20260901005528 53 0.0 0.0 0.00 0.01 0.00 86 1021.0
20260901004544 53 0.0 0.0 0.00 0.01 0.00 86 1020.9
20260901003520 53 0.0 0.0 0.00 0.01 0.00 86 1021.0
20260901002518 53 0.0 0.0 0.00 0.01 0.00 85 1021.1
20260901001524 54 0.0 0.0 0.00 0.01 0.00 85 1021.1
20260901000522 54 0.0 0.0 0.00 0.01 0.00 85 1021.1
20260831235518 54 0.0 1.0 0.00 0.01 0.00 84 1021.2
20260831234520 54 0.0 1.0 0.00 0.01 0.00 83 1021.1
20260831233517 54 0.0 0.0 0.00 0.01 0.00 83 1021.2
20260831232522 55 0.0 2.0 0.00 0.01 0.00 82 1021.1
20260831231517 55 248 1.0 3.0 0.00 0.01 0.00 82 1021.2
20260831230540 55 248 1.0 5.0 0.00 0.01 0.00 81 1021.2
20260831225517 56 225 2.0 6.0 0.00 0.01 0.01 81 1021.3
20260831224520 56 225 2.0 6.0 0.00 0.01 0.01 81 1021.3
20260831223520 56 225 3.0 6.0 0.00 0.01 0.01 80 1021.1
20260831222519 56 225 3.0 7.0 0.00 0.01 0.01 80 1021.0
20260831221521 57 248 4.0 7.0 0.00 0.02 0.01 79 1020.9
20260831220519 57 225 4.0 6.0 0.00 0.02 0.01 79 1021.0
20260831215519 57 248 3.0 7.0 0.00 0.02 0.01 78 1020.9
20260831214521 57 248 3.0 7.0 0.00 0.02 0.01 78 1020.9
20260831213604 57 225 3.0 7.0 0.00 0.02 0.01 78 1021.0
20260831212518 58 225 3.0 6.0 0.00 0.03 0.01 78 1020.9
20260831211518 58 225 4.0 7.0 0.00 0.12 0.01 77 1020.8
20260831210522 58 248 4.0 8.0 0.00 0.15 0.01 77 1020.8
20260831205519 58 248 4.0 9.0 0.00 0.15 0.01 76 1020.8
20260831204517 58 248 4.0 8.0 0.00 0.15 0.01 76 1020.7
20260831203518 59 248 4.0 8.0 0.00 0.15 0.01 75 1020.4
20260831202518 59 248 3.0 8.0 0.00 0.15 0.01 75 1020.4
20260831201552 59 248 4.0 7.0 0.00 0.16 0.01 76 1020.4
20260831200517 59 248 3.0 8.0 0.00 0.16 0.01 76 1020.4
20260831195519 59 248 3.0 6.0 0.00 0.16 0.01 75 1020.3
20260831194519 59 248 4.0 8.0 0.00 0.16 0.01 75 1020.4
20260831193517 60 248 3.0 7.0 0.00 0.16 0.01 74 1020.2
20260831192517 60 248 2.0 4.0 0.00 0.16 0.01 73 1020.0
20260831191517 61 248 3.0 6.0 0.00 0.16 0.01 72 1020.0
20260831190553 61 225 4.0 8.0 0.00 0.16 0.01 72 1019.8
20260831185518 62 248 4.0 9.0 0.00 0.16 0.01 71 1019.6
20260831184518 62 248 4.0 8.0 0.00 0.16 0.01 71 1019.6
20260831183517 62 248 3.0 6.0 0.00 0.16 0.01 70 1019.4
20260831182518 63 248 5.0 9.0 0.00 0.16 0.01 69 1019.4
20260831181518 63 248 5.0 12.0 0.00 0.16 0.01 67 1019.4
20260831180518 64 248 8.0 13.0 0.00 0.16 0.01 66 1019.6
20260831175519 64 248 7.0 11.0 0.00 0.16 0.01 66 1019.3
20260831174518 65 248 6.0 11.0 0.00 0.16 0.01 65 1019.2
20260831173518 65 248 6.0 13.0 0.00 0.19 0.01 64 1019.2
20260831172518 65 248 4.0 9.0 0.00 0.19 0.01 62 1018.9
20260831171519 65 248 3.0 10.0 0.00 0.19 0.01 61 1018.9
20260831170517 66 248 5.0 11.0 0.00 0.19 0.01 59 1018.9
20260831165517 67 270 7.0 16.0 0.00 0.19 0.01 58 1018.9
20260831164520 67 270 6.0 13.0 0.00 0.19 0.01 59 1018.7
20260831163520 67 270 8.0 18.0 0.00 0.20 0.01 59 1018.7
20260831162516 67 270 9.0 16.0 0.00 0.20 0.01 58 1018.8
20260831161540 67 270 7.0 14.0 0.00 0.20 0.01 62 1018.7
20260831160517 67 270 7.0 15.0 0.00 0.20 0.01 62 1018.7
20260831155518 67 270 9.0 16.0 0.00 0.20 0.01 61 1018.5
20260831154538 68 270 9.0 15.0 0.00 0.20 0.01 60 1018.4
20260831153518 68 270 10.0 17.0 0.00 0.20 0.01 58 1018.4
20260831152519 69 270 7.0 14.0 0.00 0.20 0.01 58 1018.3
20260831151521 70 248 9.0 18.0 0.00 0.20 0.01 57 1018.1
20260831150517 70 248 10.0 17.0 0.00 0.20 0.01 56 1018.0
20260831145520 70 248 7.0 13.0 0.00 0.20 0.01 54 1017.9
20260831144524 71 248 12.0 19.0 0.00 0.20 0.01 57 1017.9